Regional Weather Roundup
Issued by NWS Portland, ME

Home | Current Version | Previous Version | Text Only | Print | Product List | Glossary On
Versions: 1 2 3 4 5 6 7 8 9 10 11 12 13 14 15 16 17 18 19 20 21 22 23 24 25 26 27 28 29 30 31 32 33 34 35 36 37 38 39 40 41 42 43 44 45 46 47 48 49 50
000
ASUS41 KGYX 301410
RWRGYX
WEATHER ROUNDUP FOR MAINE AND NEW HAMPSHIRE
NATIONAL WEATHER SERVICE GRAY ME
1000 AM EDT THU OCT 30 2014

MEZ002-005-006-010-012-015-018-020-021-024-026-027-029-301500-
MAINE

CITY           SKY/WX    TMP DP  RH WIND       PRES   REMARKS
PORTLAND       PTSUNNY   49  42  77 W7        29.91S
SANFORD        CLOUDY    48  36  61 W7        29.92R
BAR HARBOR     SUNNY     50  45  81 SW5       29.88S
WISCASSET      PTSUNNY   50  45  83 W3        29.91S
ROCKLAND       SUNNY     48  43  81 W3        29.88S
FRYEBURG       CLOUDY    49  39  68 VRB5      29.91S
LEWISTONAUBURN CLOUDY    41  37  87 CALM      29.90
AUGUSTA        CLOUDY    46  40  79 W5        29.89S
WATERVILLE     CLOUDY    43  37  81 SW5       29.86S
BANGOR         MOSUNNY   48  41  76 W6        29.87S
GREENVILLE       N/A     44  39  82 VRB7      29.83R
MILLINOCKET    SUNNY     48  40  73 W8        29.85S
HOULTON        MOSUNNY   46  39  76 W9        29.82R
PRESQUE ISLE   MOSUNNY   46  36  66 W9        29.81R
FRENCHVILLE    SUNNY     42  32  67 NW13      29.79R
CARIBOU        MOSUNNY   46  38  73 NW8       29.80R
$$

NHZ002-005-008-009-011-012-014-301500-
NEW HAMPSHIRE

CITY           SKY/WX    TMP DP  RH WIND       PRES   REMARKS
PORTSMOUTH     PTSUNNY   48  40  74 W8        29.91S
ROCHESTER      CLOUDY    48  40  73 NW5       29.92S
NASHUA         CLOUDY    47  42  82 CALM      29.94S
MANCHESTER     PTSUNNY   46  38  73 N3        29.93R
CONCORD        CLOUDY    41  39  93 CALM      29.94S
LACONIA        CLOUDY    46  39  76 SW7       29.91S
PLYMOUTH       CLOUDY    42  42 100 CALM      29.93S
BERLIN         CLOUDY    44  40  85 VRB3      29.90R
WHITEFIELD     CLOUDY    43  40  89 SW3       29.92R
JAFFREY        CLOUDY    43  41  93 SE3       29.94S
LEBANON        CLOUDY    45  41  86 CALM      29.93S
MT WASHINGTON  FOG       25  25 100 NW36G45     N/A  VSB 0   WCI   7
$$

VTZ005-007-008-301500-
VERMONT

CITY           SKY/WX    TMP DP  RH WIND       PRES   REMARKS
ST JOHNSBURY     N/A     43  41  93 MISG      29.92R
MONTPELIER     CLOUDY    44  39  82 NW7       29.97R
BURLINGTON     PTSUNNY   47  36  65 NW8       29.97R
$$

MAZ007-012-024-CTZ003-RIZ002-NYZ038-NYZ072-301500-
SOUTHERN NEW ENGLAND AND NY

CITY           SKY/WX    TMP DP  RH WIND       PRES   REMARKS
BOSTON         MOSUNNY   54  40  59 W13       29.93F
WORCESTER      CLOUDY    45  38  76 W8        29.95R
NANTUCKET        N/A     54  43  66 NW9       29.94S
PROVIDENCE     MOSUNNY   53  39  59 W8        29.96S
HARTFORD       PTSUNNY   50  42  74 CALM      29.97S
ALBANY         PTSUNNY   50  39  66 W12       30.00R
NEW YORK CITY  MOSUNNY   53  40  61 NW15      30.00R
$$

ANZ081-ANZ082-ANZ150-NHZ014-MEZ023>029-301500-
COASTAL MARINE OBSERVATIONS

STATION/POSITION TIME  TEMP    WIND        PRES    WAVE
                       AIR SEA DIR/SP/G            HT/PER
                 (UTC) (F)     (DEG/KT/KT) (MB)    (FT/S)
MOUNT DESERT ROC 1400   51                 1011.7R
MATINICUS ROCK   1400          280/ 11/ 11 1011.6R
PORTLAND WX BUOY 1350   47 53  310/  4/  6 1012.8R   1/ 6
WELLS            1300   47 51  290/  8/ 12 1011.8R
ISLE OF SHOALS   1400   49     290/ 13/ 14 1012.5R
JEFFREYS LEDGE   1321      54                N/A     2/ 3
CASHES LEDGE BUO 1350   53 55  310/  4/  6 1012.2R   2/ 6
$$

.............KEY..............
   WCI - WIND CHILL
   TC  - TEMPERATURE IN CELSIUS
   VSB - VISIBILITY IN MILES
   HX  - HEAT INDEX
   FAIR- INDICATES FEW OR NO CLOUDS BELOW 12,000 FT, WITH NO
         SIGNIFICANT WEATHER AND/OR OBSTRUCTIONS TO VISIBILITY.





USA.gov is the U.S. government's official web portal to all federal, state and local government web resources and services.